SL-12 R/B(2), 19754

Orbit data source: Space-Track

SL-12 R/B(2), 19754 is space debris in MEO originally from a launch on Tue, 10 Jan 1989 UTC launched from the Tyuratam Missile And Space Complex (TTMTR). Debris objects in space refer to the collection of defunct objects orbiting the Earth. Examples of debris include non-operational satellites, rocket bodies, and fragments generated from explosions, collisions, or faulty payload assembly.

Loading next visibility...
Identifier
19754, 1989-001F
Orbit
MEO
Country
Flag of CISCIS
Related business
Manufacturer
NPO Energiya
Mission
Spacecraft
Bus & Motor
BLOK DM, Unknown motor
Mass
2,440 kg wet, 2,440 kg dry
Launch date (UTC)
1989-01-10 (37 years ago)
Launch vehicle
Unknown
Launch site
Tyuratam Missile And Space Complex (TTMTR)
Object type
Payload
Rocket body
Debris
Shape & HBR
Cyl, 3.1 m
Radar Cross Section
23.597 m², Large (>1 m²)

Expand to show TLE details & history
Last TLE update: 1 day ago

TLE from 1 day ago
0 SL-12 R/B(2)
1 19754U 89001F   25349.91963343 -.00000058  00000-0  00000-0 0  9999
2 19754  64.8577  77.0910 0015882 237.0987 119.4477  2.13421065287788
Epoch: 2025-12-15T22:04Z
TLE epoch observation values (Epoch: 2025-12-15T22:04:16.328Z)
Latitude
-3.00405°
Longitude
19.81061°
Altitude
19,125.471 km
Speed
3.952 km/s
True Right ascension
05h 02m 45s
True Declination
-2° 59' 57"
Sunlit
Object was in daylight at epoch
Visualization orbit readout
Latitude
Unknown
Longitude
Unknown
Altitude
Unknown
Speed
Unknown
Apparent Right ascension
Unknown
Apparent Declination
Unknown
Sunlit
N/A
Visualization observer readout
Local Sidereal Time
02:43:36
Azimuth
Unknown
Elevation
Unknown
Doppler factor
Unknown
Orbital elements
Apogee altitude
19,144.548 km
Perigee altitude
19,063.607 km
Semi-major axis
25,482.214 km
Eccentricity
0.00159
Inclination
64.8577°
RAAN
77.091°
Arg. of periapsis
237.0987°
True anomaly
119.60603°
Mean anomaly
119.4477°
Eccentric anomaly
119.52688°
Mean motion
0.53357 °/min
Orbital period
674.71 mins
BSTAR
0
Loading maneuver chart data...
Computing Atmospheric mass density...
Loading historical data...
Loading historical data...
Loading historical data...
Loading historical data...
Loading historical data...
Loading historical data...
Loading historical data...

Documentation

Showing up to 5 results
|